Weather History for Asheville, NC

Change the Weather History Date:

Tuesday, January 11, 2011

  Actual Average Record
Temperature  
Mean Temperature 29 °F 37 °F  
Max Temperature 34 °F 47 °F 71 °F (1890)
Min Temperature 24 °F 27 °F -6 °F (1982)
Degree Days  
Heating Degree Days 36 28  
Month to date heating degree days 354 308  
Since 1 July heating degree days 2222 1969  
Cooling Degree Days 0 0  
Month to date cooling degree days 0 0  
Year to date cooling degree days 0 0  
Moisture  
Dew Point 26 °F    
Average Humidity 84    
Maximum Humidity 100    
Minimum Humidity 68    
Precipitation  
Precipitation T in 0.12 in 2.16 in (1908)
Month to date precipitation 1.23 1.24  
Year to date precipitation 1.23 1.24  
Snow  
Snow T in 0.10 in 7.00 in (1918)
Month to date snowfall 9.0 1.3  
Since 1 July snowfall 19.8 2.3  
Snow Depth 7.00 in    
Sea Level Pressure  
Sea Level Pressure 30.09 in    
Wind  
Wind Speed 4 mph (South)    
Max Wind Speed 16 mph    
Max Gust Speed 21 mph    
Visibility 5 miles    
Events Snow    
T = Trace of Precipitation, MM = Missing Value Source: NWS Daily Summary

Daily Weather History Graph

Daily Weather History Graph

Search for Another Location

Airport:

Trip Planner

Search our weather history database for the weather conditions in past years. The results will help you decide how hot, cold, wet, or windy it might be!

Date:

Astronomy

Jan. 11, 2011 Rise Set
Actual Time 7:39 AM EST 5:36 PM EST
Civil Twilight 7:11 AM EST 6:04 PM EST
Nautical Twilight 6:40 AM EST 6:36 PM EST
Astronomical Twilight 6:09 AM EST 7:06 PM EST
Moon 11:16 AM EST (1/11) No Moon Set
Length of Visible Light 10h 52m
Length of Day
9h 57m
Waxing Crescent, 43% of the Moon is Illuminated
Jan 11
Waxing Crescent
Jan 12
First Quarter
Jan 19
Full
Jan 26
Last Quarter
Feb 2
New

Hourly Weather History & Observations

Time (EST) Temp. Windchill Dew Point Humidity Pressure Visibility Wind Dir Wind Speed Gust Speed Precip Events Conditions
12:47 AM 26.6 °F 22.6 °F 24.8 °F 93% 30.14 in 2.0 mi South 3.5 mph - N/A   Overcast
12:54 AM 26.1 °F 20.5 °F 25.0 °F 96% 30.19 in 2.0 mi South 4.6 mph - N/A   Overcast
1:54 AM 26.1 °F 21.9 °F 25.0 °F 96% 30.18 in 2.0 mi SSE 3.5 mph - N/A   Overcast
2:54 AM 26.1 °F - 25.0 °F 96% 30.18 in 2.0 mi Calm Calm - N/A   Overcast
2:57 AM 26.6 °F - 24.8 °F 93% 30.13 in 2.0 mi Calm Calm - N/A   Overcast
3:13 AM 26.6 °F - 24.8 °F 93% 30.13 in 2.0 mi Calm Calm - N/A   Overcast
3:24 AM 26.6 °F - 26.6 °F 100% 30.12 in 2.0 mi Calm Calm - N/A   Overcast
3:50 AM 26.6 °F 22.6 °F 24.8 °F 93% 30.10 in 2.0 mi SSE 3.5 mph - N/A   Overcast
3:54 AM 26.1 °F 21.9 °F 25.0 °F 96% 30.16 in 2.0 mi South 3.5 mph - N/A   Overcast
4:54 AM 26.1 °F 21.9 °F 25.0 °F 96% 30.16 in 2.0 mi South 3.5 mph - N/A   Overcast
5:19 AM 26.6 °F 22.6 °F 26.6 °F 100% 30.10 in 2.0 mi SSE 3.5 mph - N/A   Overcast
5:49 AM 26.6 °F 21.2 °F 26.6 °F 100% 30.09 in 2.0 mi South 4.6 mph - N/A   Overcast
5:54 AM 27.0 °F 21.6 °F 26.1 °F 96% 30.14 in 2.0 mi SSE 4.6 mph - N/A   Overcast
6:45 AM 26.6 °F 21.2 °F 26.6 °F 100% 30.10 in 2.0 mi SSE 4.6 mph - N/A   Overcast
6:54 AM 27.0 °F 21.6 °F 26.1 °F 96% 30.15 in 2.0 mi SSE 4.6 mph - N/A   Overcast
7:54 AM 27.0 °F 21.6 °F 26.1 °F 96% 30.14 in 1.8 mi SSE 4.6 mph - N/A   Overcast
8:01 AM 26.6 °F 20.0 °F 26.6 °F 100% 30.11 in 2.0 mi South 5.8 mph - N/A   Overcast
8:12 AM 26.6 °F - 26.6 °F 100% 30.11 in 1.2 mi Calm Calm - N/A   Overcast
8:30 AM 26.6 °F - 26.6 °F 100% 30.11 in 1.5 mi Calm Calm - 0.00 in Snow Light Snow
8:34 AM 26.6 °F - 26.6 °F 100% 30.12 in 1.2 mi Calm Calm - 0.00 in Snow Light Snow
8:42 AM 26.6 °F - 26.6 °F 100% 30.12 in 1.5 mi Calm Calm - 0.00 in Snow Light Snow
8:54 AM 27.0 °F 21.6 °F 26.1 °F 96% 30.17 in 2.0 mi SSE 4.6 mph - 0.00 in   Overcast
9:05 AM 26.6 °F 22.6 °F 26.6 °F 100% 30.12 in 1.8 mi SE 3.5 mph - N/A   Overcast
9:31 AM 28.4 °F 23.3 °F 26.6 °F 93% 30.11 in 2.0 mi SSE 4.6 mph - N/A   Overcast
9:54 AM 28.0 °F 21.7 °F 27.0 °F 96% 30.17 in 2.0 mi South 5.8 mph - N/A   Overcast
10:41 AM 28.4 °F 22.2 °F 26.6 °F 93% 30.11 in 2.0 mi SSE 5.8 mph - N/A   Overcast
10:54 AM 28.4 °F 22.2 °F 26.6 °F 93% 30.10 in 2.0 mi South 5.8 mph - N/A   Overcast
11:54 AM 28.9 °F 23.9 °F 27.0 °F 92% 30.09 in 2.0 mi SE 4.6 mph - N/A   Overcast
12:54 PM 30.0 °F - 28.0 °F 92% 30.06 in 2.0 mi Calm Calm - N/A   Overcast
1:05 PM 30.2 °F 24.3 °F 28.4 °F 93% 30.00 in 10.0 mi SE 5.8 mph - N/A   Overcast
1:54 PM 30.0 °F 26.5 °F 28.0 °F 92% 30.03 in 10.0 mi South 3.5 mph - N/A   Overcast
2:54 PM 30.9 °F - 28.9 °F 92% 30.03 in 10.0 mi Calm Calm - N/A   Overcast
3:18 PM 32.0 °F 26.4 °F 28.4 °F 87% 29.98 in 10.0 mi South 5.8 mph - N/A   Overcast
3:30 PM 32.0 °F 27.5 °F 28.4 °F 87% 29.98 in 10.0 mi SW 4.6 mph - N/A   Overcast
3:54 PM 32.0 °F - 28.9 °F 88% 30.02 in 10.0 mi Calm Calm - N/A   Overcast
4:51 PM 33.8 °F - 28.4 °F 81% 29.98 in 10.0 mi Calm Calm - N/A   Mostly Cloudy
4:54 PM 34.0 °F - 28.9 °F 82% 30.02 in 10.0 mi Calm Calm - N/A   Mostly Cloudy
5:06 PM 33.8 °F 28.6 °F 28.4 °F 81% 29.97 in 10.0 mi NNW 5.8 mph - N/A   Scattered Clouds
5:54 PM 32.0 °F 26.4 °F 27.0 °F 82% 30.02 in 10.0 mi North 5.8 mph - N/A   Partly Cloudy
6:54 PM 28.0 °F - 26.1 °F 92% 30.04 in 10.0 mi Calm Calm - N/A   Scattered Clouds
7:54 PM 28.9 °F 25.2 °F 24.1 °F 82% 30.04 in 10.0 mi NW 3.5 mph - N/A   Overcast
8:54 PM 30.9 °F 23.5 °F 21.9 °F 69% 30.04 in 10.0 mi North 8.1 mph - N/A   Overcast
9:54 PM 28.0 °F 18.1 °F 19.0 °F 69% 30.06 in 10.0 mi NNW 11.5 mph - N/A   Overcast
10:54 PM 26.1 °F 16.8 °F 18.0 °F 71% 30.07 in 10.0 mi NNW 9.2 mph - N/A   Overcast
11:54 PM 25.0 °F 15.5 °F 12.9 °F 60% 30.07 in 10.0 mi WNW 9.2 mph - N/A   Overcast